User: anonymous   Login
Location: Bacharowice
(49.9333°N, 19.5833°E)
Time: 21:45:56
(UTC+00:00)
Language:

Cosmos 1933 Rocket - Orbit

View from above orbital plane
View from above orbital plane
View from above satellite
View from above satellite

Ground track
Ground track

The orbit data is extracted from the following two-line orbital elements,

1 18959U 88020B   21212.52548247  .00000089  00000-0  78938-5 0  9992
2 18959  82.5392 304.0654 0016111 207.4651 152.5715 14.83486870782664
Epoch (UTC): 31 July 2021 12:36:41
Eccentricity: 0.0016111
inclination: 82.5392°
perigee height: 607 km
apogee height: 629 km
right ascension of ascending node: 304.0654°
argument of perigee: 207.4651°
revolutions per day: 14.83486870
mean anomaly at epoch: 152.5715°
orbit number at epoch: 78266

The dashed part of the orbit path shows where the satellite is in the earth's shadow,  

DLR